Weather History for San Jose, Costa Rica

Change the Weather History Date:

Thursday, December 6, 2012

  Actual Average Record
Temperature  
Mean Temperature 74 °F -  
Max Temperature 81 °F 79 °F 85 °F (2013)
Min Temperature 66 °F 64 °F 62 °F (2007)
Cooling Degree Days 8    
Growing Degree Days 24 (Base 50)    
Moisture  
Dew Point 61 °F    
Average Humidity 68    
Maximum Humidity 83    
Minimum Humidity 43    
Precipitation  
Precipitation 0.00 in 0.04 in - ()
Sea Level Pressure  
Sea Level Pressure 29.93 in    
Wind  
Wind Speed 6 mph ()    
Max Wind Speed 10 mph    
Max Gust Speed -    
Visibility 7.9 miles    
Events      
Averages and records for this station are not official NWS values.
T = Trace of Precipitation, MM = Missing Value Source: Averaged Metar Reports

Daily Weather History Graph

Daily Weather History Graph

Search for Another Location

Airport:

Trip Planner

Search our weather history database for the weather conditions in past years. The results will help you decide how hot, cold, wet, or windy it might be!

Date:

Astronomy

Dec. 06, 2012 Rise Set
Actual Time 5:41 AM CST 5:15 PM CST
Civil Twilight 5:18 AM CST 5:37 PM CST
Nautical Twilight 4:52 AM CST 6:04 PM CST
Astronomical Twilight 4:26 AM CST 6:30 PM CST
Moon 11:59 PM CST (12/6) 11:34 AM CST (12/6)
Length of Visible Light 12h 19m
Length of Day
11h 33m
Waning Gibbous, 49% of the Moon is Illuminated
Dec 6
Waning Gibbous
Dec 13
New
Dec 19
First Quarter
Dec 28
Full
Jan 4
Last Quarter

Hourly Weather History & Observations

Time (CST) Temp. Heat Index Dew Point Humidity Pressure Visibility Wind Dir Wind Speed Gust Speed Precip Events Conditions
12:00 AM 69 °F - 60 °F 67% 29.83 in 12 mi NE 6.9 mph - -   Mostly Cloudy
12:00 AM 69.8 °F - 60.8 °F 73% 30.00 in - NE 6.9 mph - N/A   Clear
1:00 AM 68.0 °F - 60.8 °F 78% 29.99 in - NE 6.9 mph - N/A   Clear
2:00 AM 69.8 °F - 60.8 °F 73% 29.97 in - NNE 6.9 mph - N/A   Clear
3:00 AM 68 °F - 60 °F 69% 29.81 in 12 mi North 10.4 mph - -   Scattered Clouds
3:00 AM 68.0 °F - 60.8 °F 78% 29.95 in 6.2 mi North 10.4 mph - N/A   Partly Cloudy
4:00 AM 66.2 °F - 60.8 °F 83% 29.95 in 6.2 mi NE 5.8 mph - N/A   Partly Cloudy
5:00 AM 66.2 °F - 60.8 °F 83% 29.97 in 6.2 mi NE 4.6 mph - N/A   Scattered Clouds
6:00 AM 67 °F - 60 °F 72% 29.84 in 12 mi NE 4.6 mph - -   Scattered Clouds
6:00 AM 68.0 °F - 60.8 °F 78% 29.99 in 6.2 mi NE 4.6 mph - N/A   Mostly Cloudy
7:00 AM 68.0 °F - 60.8 °F 78% 30.01 in - NE 5.8 mph - N/A   Clear
8:00 AM 71.6 °F - 60.8 °F 69% 30.02 in - ENE 5.8 mph - N/A   Clear
9:00 AM 76 °F - 62 °F 53% 29.87 in 12 mi ESE 4.6 mph - -   Clear
9:00 AM 75.2 °F - 62.6 °F 65% 30.02 in - ESE 4.6 mph - N/A   Clear
10:00 AM 77.0 °F - 60.8 °F 57% 30.00 in 6.2 mi East 8.1 mph - N/A   Scattered Clouds
11:00 AM 80.6 °F 81.5 °F 60.8 °F 51% 29.99 in 6.2 mi ESE 8.1 mph - N/A   Scattered Clouds
12:00 PM 78 °F - 60 °F 43% 29.81 in 12 mi ESE 5.8 mph - -   Mostly Cloudy
12:00 PM 77.0 °F - 59.0 °F 54% 29.96 in 6.2 mi ESE 5.8 mph - N/A   Mostly Cloudy
12:20 PM 73.4 °F - 62.6 °F 69% 29.95 in 6.2 mi West 8.1 mph - N/A   Mostly Cloudy
1:00 PM 73.4 °F - 64.4 °F 73% 29.94 in 6.2 mi West 6.9 mph - N/A   Mostly Cloudy
2:00 PM 77.0 °F - 62.6 °F 61% 29.92 in 6.2 mi WNW 5.8 mph - N/A   Scattered Clouds
3:00 PM 75 °F - 64 °F 61% 29.75 in 12 mi WSW 6.9 mph - -   Partly Cloudy
3:00 PM 75.2 °F - 64.4 °F 69% 29.91 in 6.2 mi WSW 6.9 mph - N/A   Mostly Cloudy
4:00 PM 77.0 °F - 62.6 °F 61% 29.91 in 6.2 mi WNW 4.6 mph - N/A   Mostly Cloudy
5:00 PM 73.4 °F - 60.8 °F 65% 29.92 in 6.2 mi SE 4.6 mph - N/A   Mostly Cloudy
6:00 PM 71 °F - 59 °F 57% 29.81 in 12 mi East 8.1 mph - -   Partly Cloudy
6:00 PM 71.6 °F - 59.0 °F 64% 29.94 in 6.2 mi East 8.1 mph - N/A   Mostly Cloudy
7:00 PM 69.8 °F - 60.8 °F 73% 29.96 in 6.2 mi ESE 8.1 mph - N/A   Mostly Cloudy
8:00 PM 69.8 °F - 60.8 °F 73% 29.98 in 6.2 mi East 8.1 mph - N/A   Scattered Clouds
9:00 PM 69 °F - 61 °F 69% 29.82 in 12 mi NE 5.8 mph - -   Scattered Clouds
9:00 PM 68.0 °F - 60.8 °F 78% 29.99 in 6.2 mi NE 5.8 mph - N/A   Partly Cloudy
10:00 PM 68.0 °F - 60.8 °F 78% 29.98 in 6.2 mi East 10.4 mph - N/A   Partly Cloudy
11:00 PM 68.0 °F - 60.8 °F 78% 29.97 in 6.2 mi East 5.8 mph - N/A   Partly Cloudy